[[{"header":{"parameterUnit":"m.s-1","parameterCategory":1,"la1":30.2991,"la2":30.254,"lo1":-89.0895,"lo2":-89.0444,"dx":0.0017,"dy":0.0017,"nx":28,"ny":28,"refTime":"2022-11-17T15:00:00:Z","depth":0,"parameterNumber":2,"parameterNumberName":"U-component_of_WINDS"},"data":[0,0,0,0,0,0,0,0,0,0,0,0,0,0,0,0,0,0,0,0,0,0,0,0,0,0,0,0,0,0,0,0,0,0,0,0,0,0,0,0,0,0,0,0,0,0,0,0,0,0,0,0,0,0,0,0,0,0,-4.682,-4.682,0,-4.685,-4.685,-4.685,-4.6652,-4.6647,-4.6641,-4.6636,-4.6667,-4.6673,-4.6679,0,0,0,0,0,0,0,0,0,0,0,0,0,-4.6591,-4.6596,-4.682,-4.682,-4.682,-4.6849,-4.685,-4.685,-4.6653,-4.6647,-4.664,-4.6633,-4.6665,-4.6672,-4.6679,0,0,0,0,0,0,0,0,0,0,0,0,0,-4.6663,-4.6598,-4.682,-4.6726,-4.6717,-4.6849,-4.685,-4.685,-4.6655,-4.6646,-4.6638,-4.663,-4.6662,-4.6671,-4.668,-4.6904,0,0,-4.6708,-4.6712,0,0,0,0,0,0,0,0,-4.6659,-4.6671,-4.6739,-4.6732,-4.6723,-4.6739,-4.678,-4.6868,-4.6657,-4.6679,-4.6636,-4.6626,-4.6697,-4.6703,-4.6727,-4.6905,-4.6906,-4.6709,-4.6714,-4.6718,-4.672,0,0,0,0,0,0,0,-4.6654,-4.6669,-4.6831,-4.674,-4.6731,-4.6682,-4.6682,-4.6796,-4.6735,-4.6676,-4.6662,-4.6668,-4.6692,-4.6719,-4.6726,-4.6907,-4.6708,-4.6716,-4.6722,-4.6725,-4.7269,-4.7278,0,0,0,0,0,0,-4.6662,-4.6666,-4.683,-4.6832,-4.667,-4.6693,-4.6694,-4.6742,-4.6733,-4.6723,-4.6675,-4.6659,-4.6708,-4.6716,-4.6727,-4.6988,-4.6718,-4.6726,-4.6732,-4.726,-4.7271,-4.7281,0,0,0,0,0,0,-4.6658,-4.6678,-4.6829,-4.6745,-4.6761,-4.6705,-4.6762,-4.6747,-4.6774,-4.6732,-4.672,-4.6715,-4.6701,-4.6714,-4.6861,-4.6986,-4.673,-4.6739,-4.725,-4.7264,-4.7276,-4.7513,0,0,0,0,0,0,-4.6652,-4.6678,-4.6763,-4.6749,-4.6766,-4.6964,-4.6769,-4.6754,-4.679,-4.6769,-4.6766,-4.6757,-4.6696,-4.6849,-4.687,-4.6994,-4.6746,-4.7238,-4.7256,-4.7272,-4.7494,-4.7533,-4.7566,0,0,0,0,0,-4.6644,-4.6828,-4.6768,-4.6789,-4.6871,-4.6972,-4.6982,-4.6907,-4.6801,-4.6886,-4.6859,-4.6757,-4.6969,-4.6865,-4.6888,-4.7017,-4.723,-4.7251,-4.7271,-4.7477,-4.7525,-4.7566,0,0,0,0,0,0,-4.6859,-4.6825,-4.6758,-4.6943,-4.6962,-4.6938,-4.7043,-4.696,-4.7009,-4.6988,-4.6892,-4.6893,-4.7057,-4.705,-4.6936,-4.7232,-4.7081,-4.7107,-4.7231,-4.7276,-4.7311,-4.731,-4.6753,0,0,0,0,0,-4.6928,-4.7013,-4.6978,-4.7145,-4.7157,-4.7099,-4.714,-4.7081,-4.7097,-4.7104,-4.7087,-4.7107,-4.7177,-4.7225,-4.7288,-4.7491,-4.7488,-4.7591,-4.7627,-4.7657,-4.7681,-4.7788,-4.7833,-4.7348,-4.7347,-4.7347,0,0,-4.7071,-4.7063,-4.7122,-4.7188,-4.7195,-4.7285,-4.7107,-4.721,-4.7276,-4.7119,-4.7257,-4.7246,-4.7261,-4.7438,-4.7514,-4.7438,-4.7814,-4.7683,-4.7707,-4.7715,-4.7813,-4.786,-4.7901,-4.7361,-4.7359,-4.7357,0,0,-4.7378,-4.738,-4.7519,-4.7531,-4.7544,-4.7504,-4.7538,-4.7527,-4.7513,-4.765,-4.7535,-4.7611,-4.7735,-4.775,-4.7774,-4.8086,-4.7995,-4.8109,-4.83,-4.8405,-4.8444,-4.8477,-4.8589,-4.863,-4.8133,-4.8133,-4.8134,0,-4.7554,-4.7686,-4.7601,-4.7712,-4.7744,-4.7606,-4.7746,-4.7761,-4.7795,-4.782,-4.7733,-4.7885,-4.7885,-4.8064,-4.814,-4.8164,-4.8199,-4.811,-4.8445,-4.8478,-4.8508,-4.8613,-4.8656,-4.8147,-4.8146,-4.8144,-4.8143,0,-4.7902,-4.7995,-4.8105,-4.8142,-4.8186,-4.8311,-4.8245,-4.83,-4.8237,-4.8206,-4.8347,-4.8342,-4.8401,-4.8438,-4.8378,-4.8608,-4.856,-4.8461,-4.8307,-4.8569,-4.8667,-4.8707,-4.8167,-4.8162,-4.8158,-4.8155,0,0,-4.8346,-4.8334,-4.8376,-4.8391,-4.8395,-4.8465,-4.8584,-4.8641,-4.8691,-4.8718,-4.8815,-4.8923,-4.883,-4.8858,-4.8797,-4.889,-4.9138,-4.8778,-4.8777,-4.8846,-4.9392,-4.9468,-4.9517,-4.9077,-4.9084,-4.909,-4.9391,0,-4.8647,-4.8849,-4.8776,-4.8983,-4.9067,-4.8937,-4.904,-4.9054,-4.9028,-4.9096,-4.9065,-4.9144,-4.9016,-4.9032,-4.9117,-4.909,-4.9247,-4.9067,-4.9167,-4.9171,-4.9169,-4.9567,-4.9648,-4.9933,-4.9429,-4.9435,-4.944,0,-4.9025,-4.9068,-4.9284,-4.9273,-4.9306,-4.94,-4.9447,-4.9513,-4.9526,-4.95,-4.9532,-4.9451,-4.9565,-4.9411,-4.9568,-4.9448,-4.9484,-4.9477,-4.9486,-4.9493,-4.9323,-4.9587,-5.0021,-5.0065,-4.9499,-4.9495,-4.949,0,-4.9329,-4.944,-4.9584,-4.96,-4.9592,-4.9661,-4.9661,-4.9665,-4.9704,-4.9745,-4.9769,-4.9823,-4.9853,-4.9897,-4.9832,-4.9726,-4.9999,-4.9839,-4.9981,-4.9983,-5.0046,-5.0043,-5.0494,-5.0068,-5.0067,-5.0067,-5.0066,0,-4.9673,-4.981,-4.972,-4.9809,-4.9958,-4.9872,-5.0023,-5.0007,-5.0013,-5.0096,-4.9985,-5.0065,-4.9975,-5.0046,-4.9997,-5.0135,-5.0149,-5.0131,-5.0117,-5.0142,-5.0145,-5.0165,-5.0144,-5.0078,-5.0075,-5.0073,-5.0071,0,-5.0038,-4.9983,-5.0131,-5.0111,-5.0109,-5.022,-5.0202,-5.0283,-5.0248,-5.0355,-5.0375,-5.0321,-5.0399,-5.0339,-5.0416,-5.0382,-5.0565,-5.0521,-5.0561,-5.055,-5.0695,-5.0683,-5.1176,-5.1236,-5.0772,-5.0776,-5.078,0,-5.0262,-5.0364,-5.0355,-5.0403,-5.0409,-5.0488,-5.0527,-5.0446,-5.0492,-5.0514,-5.0592,-5.0661,-5.0712,-5.0843,-5.0811,-5.0869,-5.0827,-5.0996,-5.0835,-5.0857,-5.083,-5.0826,-5.0836,-5.1029,-5.1034,-5.1039,-5.1043,0,-5.0665,-5.0632,-5.0694,-5.0746,-5.0797,-5.0834,-5.0862,-5.0907,-5.0825,-5.0882,-5.0961,-5.1,-5.1079,-5.1149,-5.1196,-5.1194,-5.1106,-5.1093,-5.1129,-5.1157,-5.1176,-5.1168,-5.0651,-5.1083,-5.1079,-5.1076,-5.1073,-5.1072,-5.0966,-5.1051,-5.1058,-5.113,-5.1143,-5.1172,-5.1247,-5.1222,-5.1286,-5.1344,-5.1292,-5.1387,-5.1396,-5.145,-5.1459,-5.1532,-5.1462,-5.1515,-5.1528,-5.1542,-5.1564,-5.1164,-5.154,-5.1539,-5.1538,-5.1537,-5.1536,0,-5.1364,-5.1362,-5.1429,-5.1472,-5.1529,-5.144,-5.1466,-5.152,-5.1605,-5.1621,-5.1673,-5.1764,-5.1831,-5.1804,-5.1863,-5.1926,-5.1887,-5.1945,-5.194,-5.1941,-5.1622,-5.1586,-5.1975,-5.1975,-5.1975,-5.1975,-5.1975,-5.1975,-5.1578,-5.1717,-5.1686,-5.183,-5.1826,-5.1919,-5.1942,-5.1968,-5.198,-5.2086,-5.2142,-5.2123,-5.2122,-5.218,-5.2238,-5.2227,-5.2255,-5.2327,-5.2303,-5.2007,-5.1963,-5.1922,-5.1887,-5.2334,-5.2334,-5.2615,-5.2618,-5.262]},{"header":{"parameterUnit":"m.s-1","parameterCategory":1,"la1":30.2991,"la2":30.254,"lo1":-89.0895,"lo2":-89.0444,"dx":0.0017,"dy":0.0017,"nx":28,"ny":28,"refTime":"2022-11-17T15:00:00:Z","depth":0,"parameterNumber":3,"parameterNumberName":"V-component_of_WINDS"},"data":[0,0,0,0,0,0,0,0,0,0,0,0,0,0,0,0,0,0,0,0,0,0,0,0,0,0,0,0,0,0,0,0,0,0,0,0,0,0,0,0,0,0,0,0,0,0,0,0,0,0,0,0,0,0,0,0,0,0,-4.57,-4.57,0,-4.5738,-4.5739,-4.5739,-4.568,-4.5678,-4.5676,-4.5675,-4.5711,-4.5714,-4.5717,0,0,0,0,0,0,0,0,0,0,0,0,0,-4.5571,-4.5574,-4.57,-4.57,-4.5701,-4.5738,-4.5739,-4.5739,-4.5681,-4.5678,-4.5676,-4.5674,-4.571,-4.5713,-4.5717,0,0,0,0,0,0,0,0,0,0,0,0,0,-4.562,-4.5575,-4.57,-4.5676,-4.5674,-4.5738,-4.5739,-4.5739,-4.5681,-4.5678,-4.5675,-4.5672,-4.5709,-4.5713,-4.5717,-4.5805,0,0,-4.573,-4.5732,0,0,0,0,0,0,0,0,-4.5617,-4.5625,-4.5679,-4.5678,-4.5676,-4.5701,-4.5707,-4.5761,-4.5682,-4.5679,-4.5674,-4.5671,-4.571,-4.5714,-4.5728,-4.5806,-4.5808,-4.5731,-4.5733,-4.5735,-4.5736,0,0,0,0,0,0,0,-4.5614,-4.5623,-4.5715,-4.568,-4.5678,-4.5662,-4.5666,-4.5717,-4.5711,-4.5679,-4.5675,-4.568,-4.5709,-4.5724,-4.5728,-4.5809,-4.5731,-4.5735,-4.5737,-4.5739,-4.5957,-4.5961,0,0,0,0,0,0,-4.5614,-4.562,-4.5714,-4.5716,-4.5639,-4.5667,-4.5671,-4.5696,-4.571,-4.5709,-4.5683,-4.5677,-4.5718,-4.5723,-4.5729,-4.583,-4.5735,-4.5739,-4.5742,-4.5954,-4.5958,-4.5962,0,0,0,0,0,0,-4.5612,-4.5623,-4.5712,-4.5667,-4.5677,-4.5672,-4.5701,-4.5699,-4.5714,-4.5713,-4.5711,-4.57,-4.5716,-4.5723,-4.5786,-4.5831,-4.5741,-4.5745,-4.595,-4.5955,-4.596,-4.6034,0,0,0,0,0,0,-4.5608,-4.5622,-4.5657,-4.5668,-4.568,-4.5769,-4.5704,-4.5702,-4.5722,-4.5715,-4.5729,-4.5728,-4.5714,-4.578,-4.579,-4.5835,-4.5748,-4.5946,-4.5953,-4.5958,-4.6028,-4.6041,-4.6052,0,0,0,0,0,-4.5604,-4.5676,-4.5659,-4.567,-4.5723,-4.5772,-4.5779,-4.5762,-4.5726,-4.5759,-4.5758,-4.5727,-4.5825,-4.5787,-4.5798,-4.5845,-4.5943,-4.5951,-4.5958,-4.6022,-4.6038,-4.6052,0,0,0,0,0,0,-4.5669,-4.5677,-4.5658,-4.5737,-4.5754,-4.5762,-4.5804,-4.578,-4.5808,-4.58,-4.5778,-4.5781,-4.5848,-4.5853,-4.581,-4.5928,-4.5878,-4.5888,-4.5923,-4.5938,-4.595,-4.5947,-4.5752,0,0,0,0,0,-4.5693,-4.5734,-4.5738,-4.5807,-4.5817,-4.5809,-4.583,-4.5816,-4.5832,-4.5839,-4.5843,-4.586,-4.5893,-4.5916,-4.5948,-4.6029,-4.6029,-4.6066,-4.6079,-4.6089,-4.6097,-4.6137,-4.6153,-4.5986,-4.5986,-4.5985,0,0,-4.5742,-4.5752,-4.5779,-4.582,-4.5832,-4.5873,-4.5816,-4.5862,-4.5891,-4.5846,-4.5905,-4.5908,-4.5925,-4.5997,-4.6028,-4.6003,-4.6143,-4.6098,-4.6106,-4.6109,-4.6146,-4.6162,-4.6176,-4.599,-4.599,-4.5989,0,0,-4.5852,-4.5865,-4.5922,-4.5935,-4.5954,-4.5948,-4.5962,-4.5973,-4.5974,-4.6033,-4.5999,-4.6033,-4.6093,-4.6105,-4.612,-4.6233,-4.6204,-4.6244,-4.6307,-4.6347,-4.636,-4.6372,-4.641,-4.6424,-4.6252,-4.6253,-4.6253,0,-4.591,-4.5972,-4.5954,-4.6002,-4.602,-4.5982,-4.6038,-4.6052,-4.608,-4.6092,-4.6064,-4.6136,-4.6145,-4.6218,-4.6245,-4.6259,-4.6272,-4.6241,-4.636,-4.6371,-4.6382,-4.6417,-4.6432,-4.6257,-4.6256,-4.6256,-4.6256,0,-4.6041,-4.6084,-4.6128,-4.6156,-4.6179,-4.6231,-4.622,-4.6245,-4.6229,-4.6226,-4.6285,-4.6294,-4.6325,-4.6342,-4.6327,-4.6412,-4.6395,-4.6364,-4.6312,-4.6402,-4.6435,-4.6449,-4.6263,-4.6262,-4.626,-4.6259,0,0,-4.6193,-4.621,-4.6226,-4.6237,-4.6255,-4.6286,-4.6336,-4.6367,-4.6388,-4.6409,-4.6448,-4.6499,-4.647,-4.6486,-4.6471,-4.6506,-4.6592,-4.647,-4.647,-4.649,-4.6683,-4.6705,-4.6722,-4.6574,-4.6577,-4.6579,-4.6681,0,-4.63,-4.6387,-4.6371,-4.6454,-4.6492,-4.6456,-4.6498,-4.6513,-4.6511,-4.6541,-4.6539,-4.6574,-4.6534,-4.6543,-4.6577,-4.6575,-4.663,-4.6567,-4.6608,-4.661,-4.6603,-4.6739,-4.6763,-4.6859,-4.6694,-4.6697,-4.6698,0,-4.6437,-4.6462,-4.6549,-4.6558,-4.6574,-4.6613,-4.6639,-4.6669,-4.6684,-4.668,-4.6698,-4.6676,-4.6723,-4.6672,-4.6736,-4.6693,-4.6709,-4.6711,-4.6714,-4.6715,-4.6658,-4.6742,-4.6889,-4.6903,-4.6719,-4.6717,-4.6716,0,-4.6536,-4.6592,-4.665,-4.6661,-4.6674,-4.6702,-4.6708,-4.672,-4.6739,-4.6762,-4.6774,-4.6802,-4.6817,-4.6838,-4.6824,-4.6789,-4.6889,-4.6837,-4.6885,-4.6885,-4.6906,-4.6904,-4.7055,-4.692,-4.692,-4.692,-4.6919,0,-4.6656,-4.671,-4.6694,-4.673,-4.6788,-4.677,-4.6828,-4.683,-4.6841,-4.6875,-4.6845,-4.6878,-4.6858,-4.6889,-4.6878,-4.693,-4.6938,-4.6935,-4.6931,-4.6936,-4.6936,-4.6944,-4.6936,-4.6924,-4.6923,-4.6922,-4.6921,0,-4.6775,-4.6768,-4.6828,-4.6836,-4.6838,-4.6881,-4.6886,-4.6919,-4.6914,-4.6958,-4.6967,-4.696,-4.6994,-4.6982,-4.7019,-4.7012,-4.7078,-4.7067,-4.7073,-4.7069,-4.7116,-4.7111,-4.7276,-4.7296,-4.7151,-4.7152,-4.7153,0,-4.6851,-4.6892,-4.6903,-4.6924,-4.6933,-4.6967,-4.6986,-4.6969,-4.699,-4.7009,-4.7039,-4.707,-4.7094,-4.715,-4.7148,-4.7175,-4.7163,-4.7219,-4.7166,-4.717,-4.716,-4.7157,-4.716,-4.7228,-4.723,-4.7231,-4.7233,0,-4.6986,-4.698,-4.7009,-4.7037,-4.706,-4.7081,-4.7099,-4.7117,-4.7101,-4.7126,-4.716,-4.7179,-4.7216,-4.7247,-4.7272,-4.7277,-4.7251,-4.7249,-4.7261,-4.7266,-4.7267,-4.7264,-4.7099,-4.7245,-4.7244,-4.7243,-4.7242,-4.7242,-4.7084,-4.7118,-4.713,-4.7163,-4.7175,-4.7192,-4.7222,-4.7221,-4.725,-4.7279,-4.7267,-4.7306,-4.7318,-4.7348,-4.7357,-4.7386,-4.7364,-4.7382,-4.7386,-4.739,-4.7395,-4.7264,-4.7391,-4.739,-4.739,-4.739,-4.739,0,-4.7215,-4.7221,-4.7252,-4.7277,-4.7303,-4.7278,-4.7296,-4.7318,-4.7353,-4.7367,-4.7391,-4.743,-4.7459,-4.7459,-4.7486,-4.7509,-4.7498,-4.7517,-4.7514,-4.7515,-4.7415,-4.74,-4.7525,-4.7525,-4.7525,-4.7525,-4.7525,-4.7525,-4.7286,-4.734,-4.7335,-4.7394,-4.7399,-4.7438,-4.745,-4.7465,-4.7475,-4.7519,-4.7544,-4.7544,-4.7551,-4.7578,-4.7604,-4.7603,-4.7613,-4.7635,-4.763,-4.7536,-4.7522,-4.7509,-4.7495,-4.7638,-4.7638,-4.7727,-4.7728,-4.7728]}]]